Weather History for KMLI - December, 2012

Change the Weather History Date:

Saturday, December 8, 2012

  Actual Average Record
Temperature  
Mean Temperature 38 °F 29 °F  
Max Temperature 42 °F 37 °F 67 °F (1991)
Min Temperature 34 °F 21 °F -11 °F (1876)
Degree Days  
Heating Degree Days 27 36  
Month to date heating degree days 163 278  
Since 1 July heating degree days 1508 1509  
Cooling Degree Days 0 0  
Month to date cooling degree days 0 0  
Year to date cooling degree days 1208 1004  
Moisture  
Dew Point 32 °F    
Average Humidity 83    
Maximum Humidity 96    
Minimum Humidity 70    
Precipitation  
Precipitation 0.03 in 0.08 in 0.80 in (2009)
Month to date precipitation 0.21 0.66  
Year to date precipitation 24.79 36.44  
Snow  
Snow 0.00 in 0.30 in - ()
Month to date snowfall 0.0 1.9  
Since 1 July snowfall T 3.1  
Snow Depth 0.00 in    
Sea Level Pressure  
Sea Level Pressure 30.01 in    
Wind  
Wind Speed 7 mph (NE)    
Max Wind Speed 21 mph    
Max Gust Speed 25 mph    
Visibility 8 miles    
Events Rain    
T = Trace of Precipitation, MM = Missing Value Source: NWS Daily Summary

Daily Weather History Graph

Daily Weather History Graph

Search for Another Location

Airport or City:

Trip Planner

Search our weather history database for the weather conditions in past years. The results will help you decide how hot, cold, wet, or windy it might be!

Date:

Astronomy

Dec. 08, 2012 Rise Set
Actual Time 7:16 AM CST 4:32 PM CST
Civil Twilight 6:44 AM CST 5:03 PM CST
Nautical Twilight 6:10 AM CST 5:38 PM CST
Astronomical Twilight 5:36 AM CST 6:11 PM CST
Moon 1:37 AM CST (12/8) 1:05 PM CST (12/8)
Length of Visible Light 10h 18m
Length of Day
9h 16m
Waning Crescent, 28% of the Moon is Illuminated
Dec 8
Waning Crescent
Dec 13
New
Dec 19
First Quarter
Dec 28
Full
Jan 4
Last Quarter

Hourly Weather History & Observations

Time (CST) Temp. Windchill Dew Point Humidity Pressure Visibility Wind Dir Wind Speed Gust Speed Precip Events Conditions
12:52 AM 35.1 °F 28.6 °F 33.1 °F 92% 29.91 in 6.0 mi NNE 8.1 mph - 0.01 in Rain Light Rain
1:52 AM 34.0 °F 28.0 °F 33.1 °F 96% 29.94 in 4.0 mi North 6.9 mph - 0.01 in   Overcast
2:52 AM 34.0 °F 27.2 °F 32.0 °F 92% 29.94 in 4.0 mi NNE 8.1 mph - 0.01 in   Overcast
3:52 AM 34.0 °F 29.8 °F 32.0 °F 92% 29.95 in 6.0 mi NNE 4.6 mph - N/A   Overcast
4:52 AM 35.1 °F 32.2 °F 33.1 °F 92% 29.96 in 5.0 mi NE 3.5 mph - N/A   Overcast
5:52 AM 35.1 °F 32.2 °F 33.1 °F 92% 29.98 in 6.0 mi North 3.5 mph - N/A   Overcast
6:52 AM 34.0 °F 28.8 °F 32.0 °F 92% 30.00 in 5.0 mi NNW 5.8 mph - N/A   Overcast
6:59 AM 35.6 °F 29.9 °F 32.0 °F 87% 29.99 in 5.0 mi NNW 6.9 mph - N/A   Overcast
7:52 AM 34.0 °F 28.8 °F 32.0 °F 92% 30.01 in 5.0 mi North 5.8 mph - N/A   Overcast
8:48 AM 33.8 °F 30.8 °F 30.2 °F 87% 30.01 in 7.0 mi North 3.5 mph - N/A   Partly Cloudy
8:52 AM 35.1 °F 31.0 °F 30.9 °F 85% 30.03 in 7.0 mi North 4.6 mph - N/A   Clear
9:52 AM 36.0 °F 32.1 °F 30.9 °F 82% 30.04 in 8.0 mi ENE 4.6 mph - N/A   Mostly Cloudy
10:52 AM 37.0 °F 33.3 °F 32.0 °F 82% 30.04 in 7.0 mi North 4.6 mph - N/A   Scattered Clouds
11:52 AM 39.0 °F 35.7 °F 32.0 °F 76% 30.04 in 10.0 mi NNE 4.6 mph - N/A   Scattered Clouds
11:59 AM 39.2 °F 37.0 °F 30.2 °F 70% 30.02 in 9.0 mi NE 3.5 mph - N/A   Mostly Cloudy
12:33 PM 39.2 °F 34.2 °F 32.0 °F 75% 30.00 in 9.0 mi NNE 6.9 mph - N/A   Partly Cloudy
12:52 PM 39.9 °F 35.1 °F 30.9 °F 70% 30.01 in 10.0 mi NE 6.9 mph - N/A   Scattered Clouds
1:01 PM 39.2 °F 35.9 °F 30.2 °F 70% 30.00 in 10.0 mi NNE 4.6 mph - N/A   Mostly Cloudy
1:52 PM 41.0 °F 37.1 °F 32.0 °F 70% 30.03 in 10.0 mi NE 5.8 mph - N/A   Overcast
2:52 PM 39.0 °F 32.3 °F 30.9 °F 73% 30.03 in 10.0 mi ENE 10.4 mph - N/A   Overcast
3:52 PM 37.0 °F 29.3 °F 30.0 °F 76% 30.04 in 10.0 mi ENE 11.5 mph - N/A   Overcast
4:52 PM 37.0 °F 30.4 °F 30.9 °F 79% 30.06 in 10.0 mi ENE 9.2 mph - N/A   Overcast
5:24 PM 35.6 °F 29.9 °F 30.2 °F 81% 30.04 in 10.0 mi ENE 6.9 mph - N/A   Overcast
5:52 PM 35.6 °F 29.2 °F 30.2 °F 81% 30.05 in 10.0 mi East 8.1 mph - N/A   Overcast
6:19 PM 35.6 °F 29.9 °F 30.2 °F 81% 30.05 in 10.0 mi East 6.9 mph - N/A   Overcast
6:52 PM 36.0 °F 30.3 °F 30.9 °F 82% 30.06 in 10.0 mi East 6.9 mph - N/A   Overcast
7:52 PM 36.0 °F 30.3 °F 30.9 °F 82% 30.05 in 9.0 mi East 6.9 mph - N/A   Overcast
8:52 PM 36.0 °F 30.3 °F 32.0 °F 86% 30.05 in 10.0 mi East 6.9 mph - N/A   Overcast
9:52 PM 37.0 °F 29.8 °F 33.1 °F 86% 30.04 in 10.0 mi East 10.4 mph - N/A   Overcast
10:52 PM 37.4 °F 28.9 °F 33.8 °F 87% 30.02 in 10.0 mi SE 13.8 mph 24.2 mph N/A   Overcast
11:52 PM 37.9 °F 30.0 °F 33.1 °F 83% 30.02 in 10.0 mi ESE 12.7 mph - N/A   Overcast